Regional Weather Roundup
Issued by NWS

Home | Current Version | Previous Version | Graphics & Text | Print | Product List | Glossary On
Versions: 1 2 3 4 5 6 7 8 9 10 11 12 13 14 15 16 17 18 19 20 21 22 23 24 25 26 27 28 29 30 31 32 33 34 35 36 37 38 39 40 41 42 43 44 45 46 47 48 49 50
000
ASUS45 KCYS 301010
RWRWY

WYOMING REGIONAL WEATHER ROUNDUP
NATIONAL WEATHER SERVICE CHEYENNE WY
400 AM MDT THU MAR 30 2017

NOTE:  "FAIR" INDICATES FEW OR NO CLOUDS BELOW 12,000 FEET
WITH NO SIGNIFICANT WEATHER AND/OR OBSTRUCTIONS TO VISIBILITY.

WYZ001-301100-
YELLOWSTONE NATIONAL PARK

CITY           SKY/WX    TMP DP  RH WIND       PRES   REMARKS
LK YELLOWSTONE   N/A     32  32 100 CALM      29.86F
W YELLOWSTONE  NOT AVBL

$$
WYZ002>013-054>058-071-098>099-301100-
NORTHERN WYOMING

CITY           SKY/WX    TMP DP  RH WIND       PRES   REMARKS
JACKSON        CLOUDY    36  34  93 SW14      29.88F WCI  27
CODY           MOCLDY    46  32  58 SE8       29.77F
GREYBULL       FAIR      42  33  70 SE3       29.76F
WORLAND        FAIR      42  37  82 SE8       29.76F
SHERIDAN       MOCLDY    40  35  83 NW5       29.76F
BUFFALO        FAIR      46  30  53 CALM      29.78F
GILLETTE       FAIR      40  35  83 S15       29.77F WCI  32
HULETT         FAIR      45  36  70 SW6       29.80F
NEWCASTLE      FAIR      41  34  75 SE8G17    29.83F

$$
WYZ014>020-022>026-101>103-301100-
CENTRAL WYOMING

CITY           SKY/WX    TMP DP  RH WIND       PRES   REMARKS
BIG PINEY      CLOUDY    34  31  88 CALM      29.92F
PINEDALE       CLOUDY    34  32  93 CALM      29.93F
DUBOIS         CLOUDY    36  30  80 N10       29.84F WCI  28
LANDER         FAIR      42  34  73 E7        29.79F
RIVERTON       MOCLDY    45  33  63 W7        29.81F
CASPER         MOCLDY    41  31  67 SW6       29.82F
DOUGLAS        FAIR      34  31  88 S5        29.82F WCI  30

$$
WYZ021-027>030-104>119-301100-
SOUTHERN WYOMING

CITY           SKY/WX    TMP DP  RH WIND       PRES   REMARKS
EVANSTON       CLOUDY    38  27  64 SW12      29.95F WCI  30
KEMMERER       LGT SNOW  34  32  93 SW6       29.96F WCI  29
FORT BRIDGER   DRIZZLE   40  33  75 W8        29.98F
ROCK SPRINGS   FAIR      40  29  64 SW10      29.94F WCI  33
DIXON            N/A     36  30  78 S3        30.01F
RAWLINS        CLOUDY    39  29  67 SW8       29.93F WCI  33
SARATOGA       CLOUDY    41  30  65 SW7       29.97F
LARAMIE        FAIR      34  25  69 VRB5      29.90S WCI  30
CHEYENNE       FAIR      36  30  79 NW7       29.85F WCI  30
TORRINGTON     FAIR      35  33  92 E9        29.81F WCI  28
PINE BLUFFS    FAIR      28  28 100 W6        29.86F WCI  22

$$



USA.gov is the U.S. government's official web portal to all federal, state and local government web resources and services.